Regional Weather Roundup
Issued by NWS Newport/Morehead, NC

Current Version | Previous Version | Text Only | Print | Product List | Glossary On
Versions: 1 2 3 4 5 6 7 8 9 10 11 12 13 14 15 16 17 18 19 20 21 22 23 24 25 26 27 28 29 30 31 32 33 34 35 36 37 38 39 40 41 42 43 44 45 46 47 48 49 50
000 ASUS42 KMHX 301725 RWRMHX WEATHER ROUNDUP FOR EASTERN NORTH CAROLINA NATIONAL WEATHER SERVICE NEWPORT/MOREHEAD CITY NC 100 PM EDT SAT MAY 30 2015 NOTE: "FAIR" INDICATES FEW OR NO CLOUDS BELOW 12,000 FEET WITH NO SIGNIFICANT WEATHER AND/OR OBSTRUCTIONS TO VISIBILITY NCZ015>017-031-032-045>047-102-103-301800- NORTH COAST CITY SKY/WX TMP DP RH WIND PRES REMARKS EDENTON N/A 82 64 55 E3 30.21F ELIZABETH CITY PTSUNNY 80 65 59 SE9 30.22F KITTY HAWK SUNNY 80 64 58 E12 30.22S MANTEO SUNNY 80 63 55 E12 30.22F $$ NCZ045>047-081-094-103-104-301800- CENTRAL COAST CITY SKY/WX TMP DP RH WIND PRES REMARKS FRISCO SUNNY 82 62 50 SE7 30.23S SWANQUARTER N/A 81 N/A N/A S7G14 30.18S $$ NCZ095-097-098-100-101-301800- SOUTHERN COAST CITY SKY/WX TMP DP RH WIND PRES REMARKS BEAUFORT SUNNY 79 67 66 SE9 30.21F CEDAR ISLAND N/A 81 N/A N/A E9 30.27S JACKSONVILLE MOSUNNY 84 64 50 E9 30.19F PINEY ISLAND SUNNY N/A N/A N/A E13 30.22F WILMINGTON SUNNY 81 65 58 E13 30.20F $$ NCZ011>013-027>030-043-044-078>080-089-090>093-098-301800- COASTAL PLAIN CITY SKY/WX TMP DP RH WIND PRES REMARKS AHOSKIE SUNNY 80 65 58 CALM 30.20F CLINTON SUNNY 85 66 53 S7 30.19F ELIZABETHTOWN MOSUNNY 84 64 51 E3 30.19S GOLDSBORO PTSUNNY 82 66 58 CALM 30.17F GREENVILLE SUNNY 84 66 54 S5 30.21F HAVELOCK SUNNY 85 63 47 NE9 30.21F KENANSVILLE SUNNY 83 61 47 CALM 30.20F KINSTON MOSUNNY 84 63 48 E5 30.20F NEW BERN SUNNY 83 61 47 VRB5 30.21F RICHLANDS PTSUNNY 84 61 45 E7 30.19F ROCKY MOUNT CLOUDY 83 65 54 SE6 30.20F WASHINGTON SUNNY 82 61 48 S5 30.20F WHITEVILLE MOSUNNY 84 64 51 SE3 30.18F $$ AMZ130-135-150-152-154-156-158-170-250-252-270-ANZ085-086-088-633-658-670-301800- MARINE OBSERVATIONS STATION/POSITION TIME TEMP WIND PRES WAVE SWELL AIR SEA DIR/SP/G HT/PER HT/PER (UTC) (F) (DEG/KT/KT) (MB) (FT/S) (FT/S) CHESAPEAKE LIGHT 1700 71 130/ 10/ 10 1024.1 64 E VA BEACH 1650 71 70 90/ 4/ 6 1023.8 4/ 8 3/ 8 DUCK 1700 77 58 110/ 7/ 8 1022.7 2 E DUCK 1611 69 N/A 3/ 9 2/11 OREGON INLET 1700 77 78 90/ 5/ 10 1023.7 13E OREGON INLT 1700 79 N/A 4/ 9 2/11 HATTERAS CG 1700 78 77 110/ 6/ 9 1023.2 DIAMOND BUOY 1650 76 80 90/ 6/ 8 1023.7 3/ 9 3/ 9 CAPE LOOKOUT 1700 76 90/ 8/ 8 1023.0 BEAUFORT LAB 1700 77 77 130/ 11/ 15 1022.2 27 SE WRIGHTSVLE 1700 76 110/ 6/ 8 N/A 5 SE WRIGHTSVLE 1608 76 79 60/ 4/ 6 1023.2 225 S CAPE HAT 1650 75 75 70/ 8/ 12 1021.8 6/10 7/10 41 SE CHARLESTON 1650 78 79 90/ 12/ 16 1021.5 5/ 8 3/ 8 $$

USA.gov is the U.S. government's official web portal to all federal, state and local government web resources and services.